Погода в Новой Москве

Россия / Брянская область     53°00′57″N   31°33′07″E
темп.,
°C
ветер,
м/с
пор.,
м/с
влажн.,
%
обл.,
%
осадки,
мм/ч
давл.,
гПа
погр.,
м
7 марта, вс
вс700:00−8зюз49860 0.0 1020188
03:00−6юз6148330 0.0 1017429
06:00−4юз81780100 0.0 1013737
09:00−2зюз101781100 0.0 10081050
12:000зюз111888100 0.1 10051239
15:00+1зюз111986100 0.2 10031282
18:000з9159699 0.6 1003895
21:00−2з5128599 1.1 1004456
8 марта, пн
пн800:00−3з51291100 0.1 1004392
03:00−4з5128987 0.2 1005364
06:00−6з511896 0.0 1005332
09:00−6з511883 0.0 1006562
12:00−3зсз588694 0.2 1007897
15:00−2ссз687484 0.8 10091213
18:00−5ссз498158 0.0 1010376
21:00−7сз488868 0.0 1014159
9 марта, вт
вт900:00−8ссз369575 0.0 1015154
03:00−10сз359480 0.0 101695
06:00−11ссз349538 0.0 101879
09:00−10ссз359329 0.0 1020254
12:00−7ссз358048 0.0 1020744
15:00−5ссз347469 0.0 10211006
18:00−7сз248497 0.0 1021108
21:00−10с128792 0.0 102321
10 марта, ср
ср1000:00−11юз118749 0.0 102321
03:00−11ююз128660 0.0 102421
06:00−11ююз238977 0.0 102425
09:00−9ююз359184 0.0 1024149
12:00−4юз4683100 0.0 1024634
15:00−3юз4575100 0.0 1023892
18:00−4юз2383100 0.0 102332
21:00−7зюз368265 0.0 102298
11 марта, чт
чт1100:00−7юз458226 0.0 102289
03:00−6юз368362 0.0 1021122
06:00−8юз478283 0.0 1020133
09:00−6ююз498085 0.0 1020218
12:00−2ююз6972100 0.0 1019647
15:000ю71174100 0.0 1016910
18:00−1ю71477100 0.0 1014696
21:00−1ю81683100 0.0 1011789